LS3C (56214 NORAD) Tracking and Keplerian Element Data

This shows tracking and keplerian element data for the satellite.

Feedback or suggestion? Click here.




ElementValue
Catalog56214
NameLS3C
Epoch Orbit2093
Epoch Day238.65404163
Epoch Year2023
RAAN133.011
Inclination97.3938
Eccentricity0.0016293
Argument of Perigee114.9414
Mean Anonmoly245.352
Mean Motion15.27106041
Decay Rate0.00017857
L11 56214U 23054AN 23238.65404163 .00017857 00000+0 67099-3 0 9990
L22 56214 97.3938 133.0110 0016293 114.9414 245.3520 15.27106041 20935



Live tracking and technical data element details for LS3C (NORAD 56214). LS3C can be tracked NOW for your location showing map with azimuth and elevation plus other details from your city location.







IsCatalogInMostPopularTable: catalog: 56214, numindb: 15
Update: records affected: 1



GetName: 56214 LS3C

Hit Count: updated at: Thu, 28 Sep 2023 05:26:02 GMT